Weather History for KNBT - November, 2013

Change the Weather History Date:

Monday, November 18, 2013

  Actual Average (KMRH) Record (KMRH)
Temperature  
Mean Temperature 70 °F -  
Max Temperature 79 °F 66 °F 79 °F (1954)
Min Temperature 60 °F 43 °F 29 °F (1967)
Cooling Degree Days 4    
Growing Degree Days 20 (Base 50)    
Moisture  
Dew Point 62 °F    
Average Humidity 75    
Maximum Humidity 93    
Minimum Humidity 50    
Precipitation  
Precipitation 0.00 in - - ()
Sea Level Pressure  
Sea Level Pressure 29.85 in    
Wind  
Wind Speed 9 mph (NW)    
Max Wind Speed 17 mph    
Max Gust Speed 23 mph    
Averages and records for this station are not official NWS values.
T = Trace of Precipitation, MM = Missing Value Source: NWS Daily Summary

Daily Weather History Graph

Daily Weather History Graph

Search for Another Location

Airport or City:

Trip Planner

Search our weather history database for the weather conditions in past years. The results will help you decide how hot, cold, wet, or windy it might be!

Date:

Astronomy

Nov. 18, 2013 Rise Set
Actual Time 6:43 AM EST 4:58 PM EST
Civil Twilight 6:16 AM EST 5:25 PM EST
Nautical Twilight 5:45 AM EST 5:56 PM EST
Astronomical Twilight 5:15 AM EST 6:26 PM EST
Moon 5:59 PM EST (11/18) 7:29 AM EST (11/18)
Length of Visible Light 11h 09m
Length of Day
10h 14m
Full, 99% of the Moon is Illuminated
Nov 18
Full
Nov 25
Last Quarter
Dec 2
New
Dec 9
First Quarter
Dec 17
Full

Hourly Weather History & Observations

Time (EST) Temp. Dew Point Humidity Pressure Visibility Wind Dir Wind Speed Gust Speed Precip Events Conditions
7:56 AM 71.1 °F 69.1 °F 93% 29.89 in - SW 10.4 mph - N/A   Overcast
8:04 AM 71.1 °F 69.1 °F 93% 29.88 in - SW 10.4 mph - N/A   Overcast
8:33 AM 72.0 °F 69.1 °F 91% 29.89 in - WSW 8.1 mph - N/A   Overcast
8:56 AM 72.0 °F 70.0 °F 93% 29.90 in - WSW 11.5 mph - N/A   Overcast
9:03 AM 72.0 °F 69.1 °F 91% 29.89 in - SW 9.2 mph - N/A   Overcast
9:10 AM 73.0 °F 70.0 °F 90% 29.88 in - SW 10.4 mph - N/A   Mostly Cloudy
9:20 AM 73.9 °F 70.0 °F 87% 29.88 in - SW 10.4 mph - N/A   Mostly Cloudy
9:56 AM 75.0 °F 70.0 °F 84% 29.89 in - SW 10.4 mph - N/A   Overcast
10:26 AM 75.0 °F 69.1 °F 82% 29.87 in - West 13.8 mph - N/A   Overcast
10:56 AM 75.9 °F 69.1 °F 79% 29.87 in - West 17.3 mph 23.0 mph N/A   Partly Cloudy
11:56 AM 78.1 °F 68.0 °F 71% 29.84 in - West 15.0 mph - N/A   Clear
12:56 PM 79.0 °F 66.9 °F 66% 29.80 in - West 10.4 mph 18.4 mph N/A   Clear
1:56 PM 77.0 °F 66.9 °F 71% 29.79 in - WNW 8.1 mph - N/A   Mostly Cloudy
2:56 PM 72.0 °F 62.1 °F 71% 29.79 in - ENE 4.6 mph - N/A   Mostly Cloudy
3:18 PM 73.0 °F 61.0 °F 66% 29.78 in - NE 6.9 mph - N/A   Mostly Cloudy
3:26 PM 72.0 °F 60.1 °F 66% 29.78 in - NE 5.8 mph - N/A   Mostly Cloudy
3:34 PM 72.0 °F 61.0 °F 68% 29.78 in - ENE 4.6 mph - N/A   Mostly Cloudy
3:56 PM 71.1 °F 60.1 °F 68% 29.80 in - ENE 4.6 mph - N/A   Mostly Cloudy
4:28 PM 70.0 °F 59.0 °F 68% 29.79 in - East 3.5 mph - N/A   Mostly Cloudy
4:56 PM 68.0 °F 57.9 °F 70% 29.81 in - NE 4.6 mph - N/A   Partly Cloudy
5:56 PM 69.1 °F 57.9 °F 68% 29.84 in - East 3.5 mph - N/A   Clear
6:56 PM 66.9 °F 53.1 °F 61% 29.84 in - North 6.9 mph - N/A   Clear
7:56 PM 64.9 °F 54.0 °F 68% 29.85 in - NNE 6.9 mph - N/A   Clear
8:56 PM 64.0 °F 52.0 °F 65% 29.87 in - North 8.1 mph - N/A   Scattered Clouds
9:56 PM 62.1 °F 52.0 °F 70% 29.88 in - North 5.8 mph - N/A   Clear
10:56 PM 60.1 °F 51.1 °F 72% 29.89 in - NNW 6.9 mph - N/A   Clear
11:56 PM 62.1 °F 43.0 °F 50% 29.90 in - NNW 16.1 mph - N/A   Clear